Location: ?????????
(53.2086°N, 54.0693°E)
Time: 12:37:27
(UTC+00:00)

SL-4 R/B - Pass Details

Date: 08 December 2019
Orbit: 428 x 667 km, 51.6° (Epoch: 25 January)

Event Time Altitude Azimuth Distance (km) Brightness Sun altitude
Rises 15:46:27 0° 267° (W) 2,587 6.6 -31.5°
Reaches altitude 10° 15:48:33 10° 265° (W) 1,742 5.4 -31.8°
Enters shadow 15:49:48 20° 263° (W) 1,259 4.5 -32.0°
